Flugplatz Biberach a.d. Riß

Für EDMB sind keine METAR/TAF Berichte vorhanden.
Es werden die Flugwettermeldungen vom Flugplatz Laupheim Airport in 16 km Entfernung angezeigt.

Bericht für ETHL

vom 25.10. um 16:20 UTC

Wind 2 kt aus 150°

Sichtweite 10 km oder mehr

gering bewölkt in 700 ft

aufgebrochene Bewölkung in 12000 ft

Temperatur 9.0°C

Taupunkt 7.0°C

Luftfeuchtigkeit 87%

Luftdruck 1020 hPa

ETHL 251620Z 15002KT 9999 FEW007 BKN120 09/07 Q1020 BLU BLU

Prognose für ETHL

vom 25.10. um 16:20 UTC

Zwischen 17:00 UTC und 02:00 UTC

Wind 4 kt aus 240°

Sichtweite 9000 m

keine signifikanten Wettererscheinungen

gering bewölkt in 700 ft

aufgebrochene Bewölkung in 12000 ft


Zwischen 17:00 und 19:00 UTC übergehend zu

variable Windrichtung mit 3 kt

Sichtweite 3000 m

Nebelschwaden

gering bewölkt in 200 ft

aufgelockert bewölkt in 12000 ft

aufgebrochene Bewölkung in 24000 ft


Zwischen 19:00 UTC und 21:00 UTC mit einer Wahrscheinlichkeit von 30%

variable Windrichtung mit 1 kt

Sichtweite 500 m

Nebel

aufgelockert bewölkt in 100 ft

gering bewölkt in 12000 ft


Zwischen 21:00 und 23:00 UTC übergehend zu

variable Windrichtung mit 1 kt

Sichtweite 400 m

Nebel

TAF ETHL 251620Z 2517/2602 24004KT 9000 NSW FEW007 BKN120 BECMG 2517/2519 VRB03KT 3000 BCFG FEW002 SCT120 BKN240 PROB30 2519/2521 VRB01KT 0500 FG SCT001 FEW120 BECMG 2521/2523 VRB01KT 0400 FG VV000
Impressum